Location: Boise
(43.6140°N, 116.2030°W)
Time: 15:10:11
(UTC-06:00)

Daily predictions for brighter satellites

Satellite Brightness Start Highest point End
(mag) Time Altitude Azimuth Time Altitude Azimuth Time Altitude Azimuth
CZ-2D R/B 4.3 21:36:39 10° S 21:40:19 46° W 21:44:01 10° NNW
NOSS 2-2 (C) 4.1 21:37:23 10° SW 21:41:29 65° NW 21:46:23 10° NNE
Meteor 1-10 Rocket 4.4 21:41:00 10° NNW 21:46:51 84° W 21:52:32 10° S
YAOGAN 11 4.3 21:47:15 10° SSE 21:51:48 85° WSW 21:56:23 10° NNW
Cosmos 1862 3.8 21:48:09 10° SSE 21:51:58 41° E 21:55:49 10° NNE
COSMOS 2487 3.1 21:50:33 10° N 21:54:01 43° ENE 21:57:28 10° SE
H-2A R/B 2.3 21:50:36 10° SSE 21:54:45 51° ENE 21:58:51 10° N
Cosmos 2154 Rocket 4.1 21:49:09 10° S 21:55:11 57° E 22:01:15 10° NNE
Cosmos 1606 2.8 21:51:17 10° N 21:55:12 63° E 21:59:04 10° SSE
Envisat 3.2 21:50:31 10° SSE 21:55:29 59° ENE 22:00:29 10° N
EO 1 Delta rocket 4.5 21:50:49 10° NNE 21:56:44 49° E 22:01:34 10° SSE
Cosmos 2184 Rocket 4.4 21:55:25 10° SSW 22:01:32 67° W 22:07:43 10° N
Cosmos 1892 4.4 21:58:33 10° SW 22:02:07 37° WNW 22:05:44 10° N
Cosmos 1420 Rocket 4.5 22:01:52 10° S 22:06:42 39° ESE 22:11:31 10° NE
CZ-4 SHROUD 4.3 22:05:12 13° SE 22:07:24 28° ENE 22:10:06 10° N
ALOS 4.2 22:03:30 10° SSW 22:07:32 29° W 22:11:37 10° NW
PSLV R/B 4.2 22:05:42 14° SE 22:07:46 29° ENE 22:10:23 10° N
ERS-1 Rocket 3.2 22:04:54 10° S 22:09:54 71° WSW 22:14:58 10° NNW
SL-8 R/B 4.4 22:06:11 10° W 22:10:56 56° NNW 22:15:42 10° ENE
MetOp-B 4.5 22:06:48 10° SE 22:11:52 50° ENE 22:17:02 10° N
Cosmos 407 Rocket 4.2 22:07:06 10° NNW 22:12:15 55° WSW 22:17:25 10° S
Meteor 1-27 Rocket 3.7 22:08:00 10° NNW 22:13:36 85° W 22:19:05 10° S
Okean 3 3.5 22:09:26 10° N 22:13:41 62° E 22:17:45 11° SSE
NOSS 5 (C) 4.2 22:10:34 10° SW 22:13:56 85° NW 22:17:03 10° NE
Cosmos 1140 Rocket 3.6 22:10:03 10° NNW 22:15:10 62° ENE 22:19:38 14° SSE
Cosmos 1782 4.0 22:11:39 10° NNW 22:15:29 42° W 22:19:18 10° SSW
Cosmos 1452 Rocket 3.7 22:20:47 10° SSW 22:26:02 76° WNW 22:31:21 10° NNE
H-2A R/B 3.5 22:22:52 13° ESE 22:26:14 23° ENE 22:30:19 10° NNE
CZ-4B R/B 4.1 22:22:22 10° NNE 22:26:50 33° E 22:30:09 16° SSE
Okean 2 Rocket 3.1 22:23:10 10° S 22:27:30 60° E 22:31:51 10° NNE
USA 234 4.5 22:25:21 10° E 22:29:20 17° ESE 22:30:12 16° SE
Cosmos 1242 Rocket 2.6 22:26:08 10° N 22:29:46 62° ENE 22:32:16 19° SSE
ISS -3.3 22:27:06 10° WSW 22:30:21 80° NNW 22:33:38 10° ENE
Cosmos 1184 Rocket 2.7 22:27:12 10° S 22:30:31 89° E 22:33:52 10° N
ARGOS 3.6 22:28:02 17° SE 22:31:55 46° ENE 22:37:01 10° N
ATLAS 5 CENTAUR R/B 4.5 22:28:07 10° WNW 22:32:31 21° WSW 22:37:05 10° SSW
YAOGAN 6 2.6 22:30:30 20° SSE 22:32:46 60° ENE 22:36:16 10° N
Cosmos 1939 Rocket 3.8 22:29:32 10° S 22:33:16 45° W 22:37:05 10° NNW
OAO 3 Rocket 4.5 22:31:02 10° SW 22:34:48 22° SSE 22:36:04 20° SE
Cosmos 1408 2.9 22:31:27 10° SSW 22:35:05 67° W 22:38:44 10° N
Cosmos 1782 Rocket 3.6 22:33:26 10° S 22:37:54 86° W 22:42:25 10° N
Terra 3.3 22:35:40 15° ESE 22:38:03 22° ENE 22:41:41 10° NNE
SPOT 1/Viking Rocket 3.7 22:37:46 19° SSE 22:41:31 63° ENE 22:46:41 10° N
Cosmos 1238 Rocket 3.4 22:39:49 10° NNW 22:43:01 48° W 22:46:41 10° S
Cosmos 1825 3.2 22:42:55 10° SSW 22:46:37 48° WNW 22:50:20 10° N
Meteor 2-13 Rocket 4.4 22:41:25 10° S 22:47:34 85° E 22:53:46 10° N
SPOT 5 3.4 22:43:47 12° S 22:48:43 66° WSW 22:54:04 10° NNW
Cosmos 2218 Rocket 4.1 22:45:05 13° S 22:50:40 61° E 22:56:58 10° NNE
Cosmos 1975 Rocket 3.5 22:47:21 10° NNW 22:51:37 59° W 22:55:12 14° S
Cosmos 1833 Rocket 2.9 22:50:28 10° NNW 22:56:03 60° ENE 22:59:10 26° SE
Cosmos 1850 Rocket 4.1 22:51:45 10° NNW 22:57:04 77° WSW 23:00:35 22° S
MetOp-A 4.5 22:54:29 15° S 22:58:57 63° WSW 23:04:17 10° NNW
UNK 4.4 22:53:39 10° NNE 22:59:53 88° ESE 23:05:49 10° SSW
DNEPR-1 R/B 4.3 22:55:46 10° NW 23:00:59 54° WSW 23:03:31 25° S
Cosmos 2278 Rocket 3.0 22:55:34 10° SW 23:01:07 55° WNW 23:06:42 10° NNE
Lacrosse 5 3.7 23:04:10 15° E 23:04:10 15° E 23:05:28 10° ENE
Cosmos 1727 Rocket 4.1 22:57:31 10° N 23:03:39 61° E 23:07:08 26° SSE
Cosmos 1959 Rocket 4.4 22:58:28 14° S 23:03:43 76° E 23:09:48 10° N
Cosmos 1536 Rocket 3.7 23:00:06 10° N 23:04:33 59° E 23:06:20 33° SE
Meteor 2-8 Rocket 4.4 23:07:16 10° N 23:13:26 73° E 23:16:48 28° SSE
Cosmos 1812 3.1 23:10:09 10° N 23:13:53 45° ENE 23:14:33 41° ESE
ASTEX 1 4.3 23:12:27 10° NNE 23:16:52 31° E 23:17:44 30° ESE
USA 229 DEB 3.8 23:09:51 10° NW 23:17:00 87° SW 23:20:58 29° SSE
USA 229 3.8 23:09:57 10° NW 23:17:07 88° SW 23:21:04 30° SSE
Meteor 1-18 Rocket 4.3 23:12:07 10° N 23:18:03 81° ENE 23:21:09 30° SSE
Cosmos 2082 Rocket 2.3 23:14:09 10° NNW 23:19:50 73° WSW 23:22:40 30° S
USA 245 4.1 23:19:50 27° SSW 23:21:17 43° W 23:25:18 10° NNW
Meteor 1-14 Rocket 4.5 23:18:53 11° SSW 23:24:22 68° WNW 23:29:56 10° N
NOSS 8 (E) 4.3 23:24:34 47° SSW 23:25:27 79° SE 23:29:12 10° NE
SL-8 Rocket 4.4 23:19:29 10° SSW 23:25:41 63° W 23:31:53 10° N
Cosmos 1331 Rocket 4.1 23:24:05 37° SSE 23:25:45 53° ESE 23:30:46 10° NNE
Cosmos 1339 Rocket 4.4 23:20:19 10° N 23:26:30 76° E 23:29:29 33° SSE
DMSP B5D2-2 4.3 23:22:21 10° NNE 23:27:26 51° E 23:28:54 39° SSE
IGS 5A 3.6 23:30:58 50° ESE 23:31:43 60° ENE 23:35:50 10° N
Cosmos 1110 Rocket 3.9 23:31:04 32° S 23:33:27 72° ESE 23:38:39 10° NNE
Cosmos 2151 Rocket 4.1 23:31:06 23° SSW 23:33:48 60° W 23:38:18 10° N
Lacrosse 5 rocket 3.6 23:38:52 11° ENE 23:38:52 11° ENE 23:39:07 10° ENE
Cosmos 2297 4.4 23:31:59 10° SW 23:37:34 55° WNW 23:43:13 10° NNE
Cosmos 1025 Rocket 4.2 23:34:52 10° NNE 23:38:40 28° ENE 23:38:57 28° E
CZ-4 R/B 4.1 23:34:29 10° N 23:39:07 64° WNW 23:41:53 24° SSW
Cosmos 1300 Rocket 3.4 23:47:41 61° S 23:48:26 82° E 23:52:54 10° N
Meteor 1-11 Rocket 4.1 23:49:23 43° SE 23:50:37 50° E 23:56:10 10° NNE
Okean 1 Rocket 3.0 23:53:00 66° SSE 23:53:34 80° E 23:58:03 10° N
CZ-4C R/B 4.0 23:53:00 42° SW 23:53:41 47° W 23:57:42 10° NNW
BREEZE-M TANK 3.0 23:45:35 10° W 23:55:09 81° N 23:56:11 48° E
